timestamp,wind_dir_avg,wind_spd_avg,wind_spd_max_dir,wind_spd_gust,battery_voltage,lat,long
2024-04-29 00:04:00+00:00,48.0,11.79,52.0,13.85,12.25,47.59359,-54.27349
2024-04-29 00:14:00+00:00,34.0,10.86,34.0,10.88,12.17,47.59359,-54.27349
2024-04-29 00:24:00+00:00,315.0,0.01,43.0,0.0,12.17,47.59359,-54.27349
2024-04-29 00:34:00+00:00,315.0,0.01,47.0,0.0,12.17,47.59359,-54.27349
2024-04-29 00:44:00+00:00,315.0,0.01,37.0,0.0,12.17,47.59359,-54.27349
2024-04-29 00:54:00+00:00,315.0,0.01,38.0,0.0,12.17,47.59359,-54.27349
2024-04-29 01:04:00+00:00,315.0,0.01,38.0,0.0,12.17,47.59359,-54.27349
2024-04-29 01:14:01+00:00,315.0,0.01,38.0,0.0,12.17,47.59359,-54.27349
2024-04-29 01:24:01+00:00,315.0,0.01,38.0,0.0,12.17,47.59359,-54.27349
2024-04-29 01:34:01+00:00,315.0,0.01,38.0,0.0,12.17,47.59359,-54.27349
2024-04-29 01:44:01+00:00,315.0,0.01,38.0,0.0,12.17,47.59359,-54.27349
2024-04-29 01:54:01+00:00,315.0,0.01,38.0,0.0,12.17,47.59359,-54.27349
2024-04-29 02:04:01+00:00,315.0,0.01,38.0,0.0,12.17,47.59359,-54.27349
2024-04-29 02:14:00+00:00,315.0,0.01,38.0,0.0,12.09,47.59359,-54.27349
2024-04-29 02:24:00+00:00,315.0,0.01,38.0,0.0,12.09,47.59359,-54.27349
2024-04-29 02:34:00+00:00,315.0,0.01,38.0,0.0,12.09,47.59359,-54.27349
2024-04-29 02:44:00+00:00,315.0,0.01,38.0,0.0,12.09,47.59359,-54.27349
2024-04-29 02:54:00+00:00,315.0,0.01,38.0,0.0,12.09,47.59359,-54.27349
2024-04-29 03:04:00+00:00,315.0,0.01,38.0,0.0,12.09,47.59359,-54.27349
2024-04-29 03:14:00+00:00,315.0,0.01,38.0,0.0,12.09,47.59359,-54.27349
2024-04-29 03:24:00+00:00,315.0,0.01,38.0,0.0,12.09,47.59359,-54.27349
2024-04-29 03:34:00+00:00,315.0,0.01,38.0,0.0,12.09,47.59359,-54.27349
2024-04-29 03:44:00+00:00,315.0,0.01,38.0,0.0,12.09,47.59359,-54.27349
2024-04-29 03:54:00+00:00,315.0,0.01,38.0,0.0,12.09,47.59359,-54.27349
2024-04-29 04:04:00+00:00,315.0,0.01,38.0,0.0,12.09,47.59359,-54.27349
2024-04-29 04:14:00+00:00,315.0,0.01,38.0,0.0,12.09,47.59359,-54.27349
2024-04-29 04:24:00+00:00,315.0,0.01,38.0,0.0,12.09,47.59359,-54.27349
2024-04-29 04:34:00+00:00,315.0,0.01,30.0,0.0,12.09,47.59359,-54.27349
2024-04-29 04:44:00+00:00,315.0,0.01,30.0,0.0,12.09,47.59359,-54.27349
2024-04-29 04:54:00+00:00,315.0,0.01,30.0,0.0,12.09,47.59359,-54.27349
2024-04-29 05:04:00+00:00,315.0,0.01,30.0,0.0,12.09,47.59359,-54.27349
2024-04-29 05:14:00+00:00,315.0,0.01,30.0,0.0,12.09,47.59359,-54.27349
2024-04-29 05:24:00+00:00,315.0,0.01,30.0,0.0,12.09,47.59359,-54.27349
2024-04-29 05:34:00+00:00,315.0,0.01,30.0,0.0,12.09,47.59359,-54.27349
2024-04-29 05:44:00+00:00,315.0,0.01,30.0,0.0,12.09,47.59359,-54.27349
2024-04-29 05:54:00+00:00,315.0,0.01,30.0,0.0,12.09,47.59359,-54.27349
2024-04-29 06:04:00+00:00,315.0,0.01,30.0,0.0,12.09,47.59359,-54.27349
2024-04-29 06:14:00+00:00,315.0,0.01,30.0,0.0,12.01,47.59359,-54.27349
2024-04-29 06:24:00+00:00,315.0,0.01,30.0,0.0,12.01,47.59359,-54.27349
2024-04-29 06:34:00+00:00,315.0,0.01,30.0,0.0,12.01,47.59359,-54.27349
2024-04-29 06:44:00+00:00,315.0,0.01,30.0,0.0,12.01,47.59359,-54.27349
2024-04-29 06:54:00+00:00,315.0,0.01,30.0,0.0,12.01,47.59359,-54.27349
2024-04-29 07:04:00+00:00,315.0,0.01,30.0,0.0,12.01,47.59359,-54.27349
2024-04-29 07:14:00+00:00,315.0,0.01,30.0,0.0,12.01,47.59359,-54.27349
2024-04-29 07:24:00+00:00,315.0,0.01,32.0,0.0,12.01,47.59359,-54.27349
2024-04-29 07:34:00+00:00,315.0,0.01,30.0,0.0,12.01,47.59359,-54.27349
2024-04-29 07:44:00+00:00,30.0,8.27,30.0,8.28,12.01,47.59359,-54.27349
2024-04-29 07:54:00+00:00,315.0,0.01,32.0,0.0,12.01,47.59359,-54.27349
2024-04-29 08:04:00+00:00,315.0,0.01,32.0,0.0,12.01,47.59359,-54.27349
2024-04-29 08:14:01+00:00,315.0,0.01,32.0,0.0,11.93,47.59359,-54.27349
2024-04-29 08:24:01+00:00,315.0,0.01,32.0,0.0,11.93,47.59359,-54.27349
2024-04-29 08:34:01+00:00,315.0,0.01,32.0,0.0,11.93,47.59359,-54.27349
2024-04-29 08:44:01+00:00,315.0,0.01,32.0,0.0,11.93,47.59359,-54.27349
2024-04-29 08:54:01+00:00,315.0,0.01,63.0,0.0,11.93,47.59359,-54.27349
2024-04-29 09:04:01+00:00,315.0,0.01,63.0,0.0,11.93,47.59359,-54.27349
2024-04-29 09:14:00+00:00,315.0,0.01,63.0,0.0,12.01,47.59359,-54.27349
2024-04-29 09:24:00+00:00,315.0,0.01,63.0,0.0,12.01,47.59359,-54.27349
2024-04-29 09:34:00+00:00,315.0,0.01,63.0,0.0,12.01,47.59359,-54.27349
2024-04-29 09:44:00+00:00,315.0,0.01,63.0,0.0,12.01,47.59359,-54.27349
2024-04-29 09:54:00+00:00,315.0,0.01,63.0,0.0,12.01,47.59359,-54.27349
2024-04-29 10:04:00+00:00,315.0,0.01,63.0,0.0,12.01,47.59359,-54.27349
2024-04-29 10:14:00+00:00,315.0,0.01,63.0,0.0,12.01,47.59359,-54.27349
2024-04-29 10:24:00+00:00,315.0,0.01,63.0,0.0,12.01,47.59359,-54.27349
2024-04-29 10:34:00+00:00,315.0,0.01,63.0,0.0,12.01,47.59359,-54.27349
2024-04-29 10:44:00+00:00,315.0,0.01,63.0,0.0,12.01,47.59359,-54.27349
2024-04-29 10:54:00+00:00,315.0,0.01,63.0,0.0,12.01,47.59359,-54.27349
2024-04-29 11:04:00+00:00,34.0,7.38,34.0,7.4,12.01,47.59359,-54.27349
2024-04-29 11:14:00+00:00,34.0,7.6,34.0,7.61,12.73,47.59359,-54.27349
2024-04-29 11:24:00+00:00,315.0,0.01,34.0,0.0,12.73,47.59359,-54.27349
2024-04-29 11:34:00+00:00,315.0,0.01,48.0,0.0,12.73,47.59359,-54.27349
2024-04-29 11:44:00+00:00,315.0,0.01,48.0,0.0,12.73,47.59359,-54.27349
2024-04-29 11:54:00+00:00,315.0,0.01,48.0,0.0,12.73,47.59359,-54.27349
2024-04-29 12:04:00+00:00,315.0,0.01,48.0,0.0,12.73,47.59359,-54.27349
2024-04-29 12:14:01+00:00,315.0,0.01,34.0,0.0,13.13,47.59359,-54.27349
2024-04-29 12:24:01+00:00,315.0,0.01,30.0,0.0,13.13,47.59359,-54.27349
2024-04-29 12:34:01+00:00,36.0,7.4,36.0,7.42,13.13,47.59359,-54.27349
2024-04-29 12:44:01+00:00,315.0,0.01,36.0,0.0,13.13,47.59359,-54.27349
2024-04-29 12:54:01+00:00,315.0,0.01,36.0,0.0,13.13,47.59359,-54.27349
2024-04-29 13:04:01+00:00,315.0,0.01,57.0,0.0,13.13,47.59359,-54.27349
2024-04-29 13:14:00+00:00,315.0,0.01,57.0,0.0,13.44,47.59359,-54.27349
2024-04-29 13:24:00+00:00,315.0,0.01,57.0,0.0,13.44,47.59359,-54.27349
2024-04-29 13:34:00+00:00,315.0,0.01,57.0,0.0,13.44,47.59359,-54.27349
2024-04-29 13:44:00+00:00,315.0,0.01,57.0,0.0,13.44,47.59359,-54.27349
2024-04-29 13:54:00+00:00,315.0,0.01,57.0,0.0,13.44,47.59359,-54.27349
2024-04-29 14:04:00+00:00,315.0,0.01,57.0,0.0,13.44,47.59359,-54.27349
2024-04-29 14:14:00+00:00,315.0,0.01,57.0,0.0,13.68,47.59359,-54.27349
2024-04-29 14:24:00+00:00,315.0,0.01,57.0,0.0,13.68,47.59359,-54.27349
2024-04-29 14:34:00+00:00,315.0,0.01,57.0,0.0,13.68,47.59359,-54.27349
2024-04-29 14:44:00+00:00,315.0,0.01,57.0,0.0,13.68,47.59359,-54.27349
2024-04-29 14:54:00+00:00,315.0,0.01,57.0,0.0,13.68,47.59359,-54.27349
2024-04-29 15:04:00+00:00,315.0,0.01,57.0,0.0,13.68,47.59359,-54.27349
2024-04-29 15:14:00+00:00,315.0,0.01,57.0,0.0,13.6,47.59359,-54.27349
2024-04-29 15:24:00+00:00,315.0,0.01,57.0,0.0,13.6,47.59359,-54.27349
2024-04-29 15:34:00+00:00,315.0,0.01,57.0,0.0,13.6,47.59359,-54.27349
2024-04-29 15:44:00+00:00,315.0,0.01,57.0,0.0,13.6,47.59359,-54.27349
2024-04-29 15:54:00+00:00,315.0,0.01,57.0,0.0,13.6,47.59359,-54.27349
2024-04-29 16:04:00+00:00,315.0,0.01,57.0,0.0,13.6,47.59359,-54.27349
2024-04-29 16:14:01+00:00,315.0,0.01,57.0,0.0,13.53,47.59359,-54.27349
2024-04-29 16:24:01+00:00,315.0,0.01,57.0,0.0,13.53,47.59359,-54.27349
2024-04-29 16:34:01+00:00,315.0,0.01,57.0,0.0,13.53,47.59359,-54.27349
2024-04-29 16:44:01+00:00,315.0,0.01,57.0,0.0,13.53,47.59359,-54.27349
2024-04-29 16:54:01+00:00,315.0,0.01,57.0,0.0,13.53,47.59359,-54.27349
2024-04-29 17:04:01+00:00,315.0,0.01,57.0,0.0,13.53,47.59359,-54.27349
2024-04-29 17:14:00+00:00,315.0,0.01,57.0,0.0,13.53,47.59359,-54.27349
2024-04-29 17:24:00+00:00,315.0,0.01,57.0,0.0,13.53,47.59359,-54.27349
2024-04-29 17:34:00+00:00,315.0,0.01,57.0,0.0,13.53,47.59359,-54.27349
2024-04-29 17:44:00+00:00,315.0,0.01,48.0,0.0,13.53,47.59359,-54.27349
2024-04-29 17:54:00+00:00,315.0,0.01,48.0,0.0,13.53,47.59359,-54.27349
2024-04-29 18:04:00+00:00,315.0,0.01,48.0,0.0,13.53,47.59359,-54.27349
2024-04-29 18:14:00+00:00,315.0,0.01,44.0,0.0,13.92,47.59359,-54.27349
2024-04-29 18:24:00+00:00,51.0,4.8,53.0,5.0,13.92,47.59359,-54.27349
2024-04-29 18:34:00+00:00,315.0,0.01,48.0,0.0,13.92,47.59359,-54.27349
2024-04-29 18:44:00+00:00,315.0,0.01,48.0,0.0,13.92,47.59359,-54.27349
2024-04-29 18:54:00+00:00,315.0,0.01,48.0,0.0,13.92,47.59359,-54.27349
2024-04-29 19:04:00+00:00,315.0,0.01,48.0,0.0,13.92,47.59359,-54.27349
2024-04-29 19:14:00+00:00,315.0,0.01,48.0,0.0,13.37,47.59359,-54.27349
2024-04-29 19:24:00+00:00,315.0,0.01,48.0,0.0,13.37,47.59359,-54.27349
2024-04-29 19:34:00+00:00,315.0,0.01,48.0,0.0,13.37,47.59359,-54.27349
2024-04-29 19:44:00+00:00,315.0,0.01,48.0,0.0,13.37,47.59359,-54.27349
2024-04-29 19:54:00+00:00,68.0,8.51,66.0,8.68,13.37,47.59359,-54.27349
2024-04-29 20:04:00+00:00,315.0,0.01,66.0,0.0,13.37,47.59359,-54.27349
2024-04-29 20:14:01+00:00,315.0,0.01,66.0,0.0,13.44,47.59359,-54.27349
2024-04-29 20:24:01+00:00,315.0,0.01,66.0,0.0,13.44,47.59359,-54.27349
2024-04-29 20:34:01+00:00,315.0,0.01,66.0,0.0,13.44,47.59359,-54.27349
2024-04-29 20:44:01+00:00,315.0,0.01,66.0,0.0,13.44,47.59359,-54.27349
2024-04-29 20:54:01+00:00,315.0,0.01,66.0,0.0,13.44,47.59359,-54.27349
2024-04-29 21:04:01+00:00,315.0,0.01,66.0,0.0,13.44,47.59359,-54.27349
2024-04-29 21:14:01+00:00,315.0,0.01,66.0,0.0,12.97,47.59359,-54.27349
2024-04-29 21:24:01+00:00,315.0,0.01,66.0,0.0,12.97,47.59359,-54.27349
2024-04-29 21:34:01+00:00,315.0,0.01,66.0,0.0,12.97,47.59359,-54.27349
2024-04-29 21:44:01+00:00,315.0,0.01,66.0,0.0,12.97,47.59359,-54.27349
2024-04-29 21:54:01+00:00,315.0,0.01,66.0,0.0,12.97,47.59359,-54.27349
2024-04-29 22:04:01+00:00,315.0,0.01,66.0,0.0,12.97,47.59359,-54.27349
2024-04-29 22:14:00+00:00,315.0,0.01,66.0,0.0,12.57,47.59359,-54.27349
2024-04-29 22:24:00+00:00,315.0,0.01,66.0,0.0,12.57,47.59359,-54.27349
2024-04-29 22:34:00+00:00,315.0,0.01,66.0,0.0,12.57,47.59359,-54.27349
2024-04-29 22:44:00+00:00,315.0,0.01,66.0,0.0,12.57,47.59359,-54.27349
2024-04-29 22:54:00+00:00,315.0,0.01,66.0,0.0,12.57,47.59359,-54.27349
2024-04-29 23:04:00+00:00,315.0,0.01,66.0,0.0,12.57,47.59359,-54.27349
2024-04-29 23:14:00+00:00,315.0,0.01,45.0,0.0,12.25,47.59359,-54.27349
2024-04-29 23:24:00+00:00,315.0,0.01,46.0,0.0,12.25,47.59359,-54.27349
2024-04-29 23:34:00+00:00,315.0,0.01,46.0,0.0,12.25,47.59359,-54.27349
2024-04-29 23:44:00+00:00,315.0,0.01,57.0,0.0,12.25,47.59359,-54.27349
2024-04-29 23:54:00+00:00,51.0,6.31,54.0,6.57,12.25,47.59359,-54.27349
